When you browse on this site, cookies collect data to enhance your experience and personalize the content and advertising you see.
Visit our Privacy Policy to learn more. By continuing to use the site, you agree to this use of cookies and data.
  • In Germany
  • List of Countries
  • For 7 days
  • Water Temperature
  • Satellite Maps
  • Weather Map
  • Weather Widgets
  • user-avatar
    Login

    Hourly Weather Molepolole

    Today, 16 December, Sunday

    Time Temperature Precipitation Wind Pressure Humidity
    00:00 +28°C° 0 mm 1 mps 667 mmHg 35%
    01:00 +28°C° 0 mm 2 mps 667 mmHg 37%
    02:00 +27°C° 0 mm 3 mps 667 mmHg 37%
    03:00 +26°C° 0 mm 3 mps 667 mmHg 41%
    04:00 +26°C° 0 mm 4 mps 667 mmHg 45%
    05:00 +25°C° 0 mm 4 mps 667 mmHg 49%
    06:00 +26°C° 0 mm 5 mps 668 mmHg 44%
    07:00 +28°C° 0 mm 5 mps 668 mmHg 39%
    08:00 +29°C° 0 mm 6 mps 669 mmHg 34%
    09:00 +32°C° 0 mm 5 mps 669 mmHg 30%
    10:00 +34°C° 0 mm 5 mps 668 mmHg 26%
    11:00 +36°C° 0 mm 5 mps 668 mmHg 22%
    12:00 +37°C° 0 mm 4 mps 668 mmHg 20%
    13:00 +38°C° 0 mm 4 mps 667 mmHg 18%
    14:00 +39°C° 0 mm 3 mps 667 mmHg 15%
    15:00 +39°C° 0 mm 3 mps 666 mmHg 15%
    16:00 +38°C° 0 mm 3 mps 666 mmHg 15%
    17:00 +38°C° 0 mm 3 mps 665 mmHg 14%
    18:00 +37°C° 0 mm 3 mps 665 mmHg 16%
    19:00 +35°C° 0 mm 3 mps 665 mmHg 18%
    20:00 +32°C° 0 mm 2 mps 665 mmHg 20%
    21:00 +31°C° 0 mm 3 mps 665 mmHg 21%
    22:00 +30°C° 0 mm 3 mps 665 mmHg 21%
    23:00 +29°C° 0 mm 4 mps 665 mmHg 22%

    Tomorrow, 17 December, Monday

    Time Temperature Precipitation Wind Pressure Humidity
    00:00 +28°C° 0.3 mm 3 mps 665 mmHg 26%
    01:00 +27°C° 0.3 mm 3 mps 665 mmHg 30%
    02:00 +26°C° 0.3 mm 2 mps 665 mmHg 34%
    03:00 +26°C° 0 mm 2 mps 666 mmHg 36%
    04:00 +25°C° 0 mm 2 mps 666 mmHg 39%
    05:00 +25°C° 0 mm 2 mps 666 mmHg 41%
    06:00 +26°C° 0 mm 3 mps 666 mmHg 39%
    07:00 +28°C° 0 mm 4 mps 667 mmHg 38%
    08:00 +29°C° 0 mm 5 mps 667 mmHg 36%
    09:00 +32°C° 0 mm 5 mps 667 mmHg 31%
    10:00 +34°C° 0 mm 5 mps 668 mmHg 25%
    11:00 +37°C° 0 mm 5 mps 668 mmHg 19%
    12:00 +37°C° 0 mm 5 mps 667 mmHg 18%
    13:00 +38°C° 0 mm 4 mps 667 mmHg 16%
    14:00 +40°C° 0 mm 4 mps 666 mmHg 15%
    15:00 +40°C° 0 mm 4 mps 666 mmHg 15%
    16:00 +38°C° 0 mm 3 mps 665 mmHg 15%
    17:00 +38°C° 0 mm 3 mps 664 mmHg 16%
    18:00 +36°C° 0.1 mm 3 mps 664 mmHg 18%
    19:00 +35°C° 0.1 mm 2 mps 664 mmHg 20%
    20:00 +32°C° 0.1 mm 2 mps 664 mmHg 22%
    21:00 +31°C° 0 mm 2 mps 664 mmHg 24%
    22:00 +30°C° 0 mm 2 mps 664 mmHg 26%
    23:00 +29°C° 0 mm 2 mps 665 mmHg 28%

    Day after tomorrow, 18 December, Tuesday

    Time Temperature Precipitation Wind Pressure Humidity
    00:00 +28°C° 0 mm 2 mps 664 mmHg 30%
    01:00 +27°C° 0 mm 2 mps 664 mmHg 32%
    02:00 +27°C° 0 mm 2 mps 663 mmHg 34%
    03:00 +26°C° 0 mm 2 mps 663 mmHg 36%
    04:00 +26°C° 0 mm 2 mps 663 mmHg 38%
    05:00 +25°C° 0 mm 3 mps 664 mmHg 39%
    06:00 +27°C° 0 mm 4 mps 664 mmHg 37%
    07:00 +29°C° 0 mm 5 mps 665 mmHg 34%
    08:00 +30°C° 0 mm 6 mps 666 mmHg 32%
    09:00 +33°C° 0 mm 5 mps 666 mmHg 28%
    10:00 +35°C° 0 mm 5 mps 666 mmHg 24%
    11:00 +37°C° 0 mm 4 mps 666 mmHg 20%
    12:00 +38°C° 0 mm 3 mps 665 mmHg 18%
    13:00 +39°C° 0 mm 2 mps 665 mmHg 17%
    14:00 +39°C° 0 mm 1 mps 664 mmHg 15%
    15:00 +39°C° 0 mm 1 mps 664 mmHg 16%
    16:00 +37°C° 0 mm 1 mps 663 mmHg 16%
    17:00 +37°C° 0 mm 1 mps 663 mmHg 17%
    18:00 +35°C° 0.1 mm 1 mps 662 mmHg 19%
    19:00 +35°C° 0.1 mm 2 mps 662 mmHg 21%
    20:00 +32°C° 0.1 mm 2 mps 662 mmHg 23%
    21:00 +31°C° 0.1 mm 2 mps 662 mmHg 25%
    22:00 +31°C° 0.1 mm 2 mps 662 mmHg 27%
    23:00 +30°C° 0.1 mm 1 mps 662 mmHg 29%

    19 December, Wednesday

    Time Temperature Precipitation Wind Pressure Humidity
    00:00 +30°C° 0 mm 1 mps 662 mmHg 29%
    01:00 +30°C° 0 mm 2 mps 662 mmHg 29%
    02:00 +29°C° 0 mm 2 mps 662 mmHg 29%
    03:00 +29°C° 0 mm 2 mps 661 mmHg 31%
    04:00 +28°C° 0 mm 1 mps 661 mmHg 33%
    05:00 +28°C° 0 mm 1 mps 661 mmHg 35%
    06:00 +29°C° 0 mm 2 mps 662 mmHg 31%
    07:00 +31°C° 0 mm 3 mps 663 mmHg 28%
    08:00 +33°C° 0 mm 5 mps 664 mmHg 24%
    09:00 +35°C° 0 mm 5 mps 664 mmHg 22%
    10:00 +37°C° 0 mm 4 mps 664 mmHg 20%
    11:00 +40°C° 0 mm 4 mps 664 mmHg 17%
    12:00 +40°C° 0 mm 4 mps 664 mmHg 17%
    13:00 +40°C° 0 mm 3 mps 663 mmHg 16%
    14:00 +40°C° 0 mm 3 mps 662 mmHg 15%
    15:00 +40°C° 0 mm 3 mps 662 mmHg 16%
    16:00 +39°C° 0 mm 3 mps 662 mmHg 16%
    17:00 +39°C° 0 mm 3 mps 661 mmHg 17%
    18:00 +37°C° 0.4 mm 2 mps 661 mmHg 20%
    19:00 +35°C° 0.4 mm 2 mps 661 mmHg 24%
    20:00 +32°C° 0.4 mm 2 mps 661 mmHg 27%
    21:00 +32°C° 0.1 mm 2 mps 662 mmHg 28%
    22:00 +31°C° 0.1 mm 1 mps 662 mmHg 30%
    23:00 +30°C° 0.1 mm 1 mps 662 mmHg 31%

    20 December, Thursday

    Time Temperature Precipitation Wind Pressure Humidity
    00:00 +30°C° 0.1 mm 2 mps 662 mmHg 31%
    01:00 +29°C° 0.1 mm 2 mps 662 mmHg 31%
    02:00 +28°C° 0.1 mm 2 mps 662 mmHg 31%
    03:00 +28°C° 0 mm 2 mps 662 mmHg 32%
    04:00 +27°C° 0 mm 2 mps 662 mmHg 33%
    05:00 +27°C° 0 mm 2 mps 662 mmHg 35%
    06:00 +28°C° 0 mm 3 mps 663 mmHg 34%
    07:00 +29°C° 0 mm 4 mps 664 mmHg 32%
    08:00 +32°C° 0 mm 5 mps 665 mmHg 31%
    09:00 +34°C° 0 mm 5 mps 665 mmHg 28%
    10:00 +36°C° 0 mm 5 mps 665 mmHg 24%
    11:00 +39°C° 0 mm 5 mps 665 mmHg 21%
    12:00 +38°C° 0 mm 4 mps 665 mmHg 20%
    13:00 +40°C° 0 mm 4 mps 664 mmHg 19%
    14:00 +39°C° 0 mm 3 mps 664 mmHg 18%
    15:00 +38°C° 0.2 mm 4 mps 663 mmHg 21%
    16:00 +37°C° 0.2 mm 5 mps 663 mmHg 24%
    17:00 +35°C° 0.2 mm 5 mps 663 mmHg 26%
    18:00 +33°C° 2.6 mm 5 mps 663 mmHg 35%
    19:00 +29°C° 2.6 mm 5 mps 662 mmHg 44%
    20:00 +27°C° 2.6 mm 6 mps 662 mmHg 52%
    21:00 +27°C° 0.6 mm 5 mps 663 mmHg 52%
    22:00 +27°C° 0.6 mm 4 mps 663 mmHg 52%
    23:00 +27°C° 0.6 mm 3 mps 664 mmHg 52%

    21 December, Friday

    Time Temperature Precipitation Wind Pressure Humidity
    00:00 +27°C° 0 mm 4 mps 664 mmHg 55%
    01:00 +26°C° 0 mm 5 mps 664 mmHg 58%
    02:00 +26°C° 0 mm 5 mps 664 mmHg 62%
    03:00 +24°C° 0.1 mm 6 mps 664 mmHg 65%
    04:00 +24°C° 0.1 mm 6 mps 665 mmHg 69%
    05:00 +23°C° 0.1 mm 6 mps 665 mmHg 73%
    06:00 +24°C° 0 mm 6 mps 665 mmHg 70%
    07:00 +24°C° 0 mm 6 mps 666 mmHg 67%
    08:00 +26°C° 0 mm 6 mps 666 mmHg 65%
    09:00 +28°C° 0 mm 6 mps 666 mmHg 57%
    10:00 +30°C° 0 mm 5 mps 666 mmHg 48%
    11:00 +33°C° 0 mm 5 mps 666 mmHg 40%
    12:00 +34°C° 0 mm 5 mps 666 mmHg 36%
    13:00 +35°C° 0 mm 4 mps 665 mmHg 32%
    14:00 +36°C° 0 mm 4 mps 665 mmHg 27%
    15:00 +36°C° 0 mm 4 mps 665 mmHg 26%
    16:00 +36°C° 0 mm 4 mps 664 mmHg 26%
    17:00 +36°C° 0 mm 4 mps 664 mmHg 25%
    18:00 +35°C° 0 mm 4 mps 664 mmHg 28%
    19:00 +34°C° 0 mm 4 mps 664 mmHg 32%
    20:00 +31°C° 0 mm 3 mps 664 mmHg 36%
    21:00 +30°C° 0.3 mm 4 mps 664 mmHg 41%
    22:00 +29°C° 0.3 mm 4 mps 664 mmHg 47%
    23:00 +28°C° 0.3 mm 4 mps 664 mmHg 52%
    Show more